TimeMDT,TemperatureF,Dew PointF,Humidity,Sea Level PressureIn,VisibilityMPH,Wind Direction,Wind SpeedMPH,Gust SpeedMPH,PrecipitationIn,Events,Conditions,WindDirDegrees,DateUTC
12:56 AM,66.0,57.9,75,30.16,10.0,East,4.6,-,N/A,,Clear,90,2013-07-01 06:56:00
1:56 AM,70.0,57.9,65,30.16,10.0,NNW,5.8,-,N/A,,Partly Cloudy,330,2013-07-01 07:56:00
2:56 AM,64.9,57.0,75,30.17,10.0,SSE,3.5,-,N/A,,Clear,160,2013-07-01 08:56:00
3:56 AM,66.0,59.0,78,30.17,10.0,NNW,3.5,-,N/A,,Clear,330,2013-07-01 09:56:00
4:56 AM,62.1,57.9,86,30.18,10.0,Calm,Calm,-,N/A,,Clear,0,2013-07-01 10:56:00
5:56 AM,64.0,57.9,80,30.20,10.0,Calm,Calm,-,N/A,,Clear,0,2013-07-01 11:56:00
6:56 AM,66.0,59.0,78,30.21,10.0,WSW,4.6,-,N/A,,Clear,250,2013-07-01 12:56:00
7:56 AM,66.9,60.1,79,30.22,10.0,South,5.8,-,N/A,,Clear,190,2013-07-01 13:56:00
8:56 AM,71.1,60.1,68,30.22,10.0,Calm,Calm,-,N/A,,Clear,0,2013-07-01 14:56:00
9:56 AM,73.9,61.0,64,30.23,10.0,Calm,Calm,-,N/A,,Clear,0,2013-07-01 15:56:00
10:56 AM,77.0,61.0,58,30.22,10.0,Variable,6.9,-,N/A,,Clear,0,2013-07-01 16:56:00
11:56 AM,80.1,60.1,50,30.22,10.0,NE,10.4,17.3,N/A,,Clear,40,2013-07-01 17:56:00
12:56 PM,82.9,61.0,47,30.19,10.0,NNE,8.1,-,N/A,,Clear,30,2013-07-01 18:56:00
1:56 PM,86.0,59.0,40,30.17,10.0,NE,11.5,19.6,N/A,,Clear,40,2013-07-01 19:56:00
2:56 PM,87.1,57.9,37,30.17,10.0,NE,10.4,-,N/A,,Clear,50,2013-07-01 20:56:00
4:56 PM,90.0,51.1,26,30.15,10.0,NE,9.2,-,N/A,,Clear,40,2013-07-01 22:56:00
5:56 PM,89.1,50.0,26,30.13,10.0,NE,9.2,-,N/A,,Clear,50,2013-07-01 23:56:00
6:56 PM,87.1,54.0,32,30.12,10.0,NE,12.7,-,N/A,,Clear,40,2013-07-02 00:56:00
7:56 PM,84.0,55.9,38,30.12,10.0,NE,10.4,-,N/A,,Clear,40,2013-07-02 01:56:00
8:56 PM,78.1,57.0,48,30.13,10.0,NE,5.8,-,N/A,,Clear,50,2013-07-02 02:56:00
9:56 PM,73.0,57.0,57,30.15,10.0,NE,5.8,-,N/A,,Clear,40,2013-07-02 03:56:00
10:56 PM,69.1,55.9,63,30.15,10.0,ENE,3.5,-,N/A,,Clear,60,2013-07-02 04:56:00
11:56 PM,66.0,55.9,70,30.14,10.0,East,4.6,-,N/A,,Clear,80,2013-07-02 05:56:00